FW1747 Weather Reports


Display with metric or nautical units.
time (UTC)temp
F
wind
direction
speed
MPH
gust
MPH
rain 1hr
in
rain 24hr
in
rain mn
in
humidity
%
barometer
mb
20260510211531 66 340 0.0 0.0 0.00 0.00 0.00 62 1020.2
20260510210027 63 349 0.0 0.0 0.00 0.00 0.00 66 1020.3
20260510204530 63 94 0.0 0.0 0.00 0.00 0.00 66 1020.2
20260510203026 63 100 0.0 0.0 0.00 0.00 0.00 67 1020.4
20260510201522 62 9 0.0 0.0 0.00 0.00 0.00 68 1020.4
20260510200022 61 65 0.0 0.0 0.00 0.00 0.00 69 1020.2
20260510194521 62 105 0.0 0.0 0.00 0.00 0.00 70 1020.4
20260510193021 61 80 0.0 0.0 0.00 0.00 0.00 69 1020.5
20260510191518 62 255 0.0 0.0 0.00 0.00 0.00 68 1020.3
20260510190017 62 256 0.0 0.0 0.00 0.00 0.00 66 1020.1
20260510184516 61 64 0.0 0.0 0.00 0.00 0.00 66 1020.3
20260510183015 61 96 0.0 0.0 0.00 0.00 0.00 65 1020.0
20260510181513 62 13 0.0 0.0 0.00 0.00 0.00 64 1020.0
20260510180012 60 79 0.0 0.0 0.00 0.00 0.00 66 1019.8
20260510174512 61 52 0.0 0.0 0.00 0.00 0.00 64 1019.8
20260510173011 62 4 0.0 0.0 0.00 0.00 0.00 64 1019.8
20260510171507 60 217 0.0 0.0 0.00 0.00 0.00 70 1019.7
20260510170006 58 291 0.0 0.0 0.00 0.00 0.00 69 1019.6
20260510164514 57 309 0.0 0.0 0.00 0.00 0.00 70 1019.5
20260510163004 58 262 0.0 0.0 0.00 0.00 0.00 69 1019.5
20260510161504 58 273 0.0 0.0 0.00 0.00 0.00 70 1019.5
20260510160003 58 203 0.0 0.0 0.00 0.00 0.00 72 1019.4
20260510154502 56 186 0.0 0.0 0.00 0.00 0.00 77 1019.4
20260510153103 55 198 0.0 0.0 0.00 0.00 0.00 81 1019.3
20260510151600 54 150 0.0 0.0 0.00 0.00 0.00 82 1019.3
20260510150124 53 33 0.0 0.0 0.00 0.00 0.00 84 1019.1
20260510144557 52 33 0.0 0.0 0.00 0.00 0.00 84 1019.0
20260510143059 51 30 0.0 0.0 0.00 0.00 0.00 85 1018.9
20260510141555 51 281 0.0 0.0 0.00 0.00 0.00 85 1018.6
20260510140054 50 281 0.0 0.0 0.00 0.00 0.00 86 1018.5
20260510134556 50 281 0.0 0.0 0.00 0.00 0.00 85 1018.2
20260510133052 50 281 0.0 0.0 0.00 0.00 0.00 85 1018.2
20260510131551 50 281 0.0 0.0 0.00 0.00 0.00 85 1018.4
20260510130050 50 281 0.0 0.0 0.00 0.00 0.00 85 1018.2
20260510124559 50 326 0.0 0.0 0.00 0.00 0.00 85 1017.9
20260510123048 50 226 0.0 0.0 0.00 0.00 0.00 85 1017.9
20260510121545 50 226 0.0 0.0 0.00 0.00 0.00 85 1018.2
20260510120044 50 261 0.0 0.0 0.00 0.00 0.00 85 1018.1
20260510114551 50 200 0.0 0.0 0.00 0.00 0.00 84 1017.9
20260510113043 50 200 0.0 0.0 0.00 0.00 0.00 84 1017.7
20260510111541 50 200 0.0 0.0 0.00 0.00 0.00 83 1018.0
20260510110043 51 200 0.0 0.0 0.00 0.00 0.00 83 1017.9
20260510104535 51 200 0.0 0.0 0.00 0.00 0.00 82 1017.4
20260510103037 51 200 0.0 0.0 0.00 0.00 0.00 81 1017.4
20260510101532 52 200 0.0 0.0 0.00 0.00 0.00 80 1017.2
20260510100027 52 200 0.0 0.0 0.00 0.00 0.00 79 1016.9
20260510094540 53 200 0.0 0.0 0.00 0.00 0.00 79 1016.7
20260510093023 53 200 0.0 1.0 0.00 0.00 0.00 79 1016.7
20260510091522 54 332 0.0 0.0 0.00 0.00 0.00 78 1016.7
20260510090020 54 232 0.0 0.0 0.00 0.00 0.00 77 1016.7
20260510084519 55 293 0.0 0.0 0.00 0.00 0.00 75 1016.7
20260510083013 55 293 0.0 0.0 0.00 0.00 0.00 74 1016.4
20260510081510 56 293 0.0 0.0 0.00 0.00 0.00 73 1016.4
20260510080021 57 265 0.0 0.0 0.00 0.00 0.00 71 1016.4
20260510074504 58 265 0.0 0.0 0.00 0.00 0.00 69 1016.4
20260510073100 58 304 0.0 0.0 0.00 0.00 0.00 68 1016.5
20260510071559 59 277 0.0 0.0 0.00 0.00 0.00 67 1016.4
20260510070055 60 266 0.0 0.0 0.00 0.00 0.00 65 1016.3
20260510064601 61 286 0.0 0.0 0.00 0.00 0.00 64 1016.3
20260510063054 62 283 0.0 0.0 0.00 0.00 0.00 61 1016.3
20260510061558 62 271 0.0 0.0 0.00 0.00 0.00 61 1016.2
20260510060052 63 295 0.0 0.0 0.00 0.00 0.00 60 1016.1
20260510054553 63 162 0.0 0.0 0.00 0.00 0.00 60 1016.1
20260510053052 63 1 0.0 0.0 0.00 0.00 0.00 59 1016.0
20260510051601 62 304 0.0 0.0 0.00 0.00 0.00 60 1015.8
20260510050053 63 297 0.0 0.0 0.00 0.00 0.00 62 1015.7
20260510044601 63 243 0.0 0.0 0.00 0.00 0.00 62 1015.7
20260510043051 63 238 0.0 0.0 0.00 0.00 0.00 61 1015.5
20260510041550 64 190 0.0 0.0 0.00 0.00 0.00 61 1015.4
20260510040051 65 70 0.0 0.0 0.00 0.00 0.00 58 1015.2
20260510034549 66 70 0.0 0.0 0.00 0.00 0.00 57 1015.0
20260510033055 68 68 0.0 0.0 0.00 0.00 0.00 56 1014.9
20260510031548 69 69 0.0 0.0 0.00 0.00 0.00 51 1014.9
20260510030057 72 69 0.0 0.0 0.00 0.00 0.00 47 1014.8
20260510024546 73 69 0.0 0.0 0.00 0.00 0.00 45 1014.7
20260510023049 74 69 0.0 0.0 0.00 0.00 0.00 44 1014.7
20260510021545 74 30 0.0 0.0 0.00 0.00 0.00 43 1014.8
20260510020045 75 359 0.0 0.0 0.00 0.00 0.00 41 1014.8
20260510014544 75 30 0.0 0.0 0.00 0.00 0.00 38 1014.8
20260510013042 76 321 0.0 0.0 0.00 0.00 0.00 35 1015.1
20260510011547 75 351 0.0 0.0 0.00 0.00 0.00 35 1015.1
20260510010040 75 319 0.0 0.0 0.00 0.00 0.00 35 1015.1
20260510004538 75 326 0.0 0.0 0.00 0.00 0.00 36 1015.2
20260510003041 75 359 0.0 0.0 0.00 0.00 0.00 37 1015.3
20260510001537 75 355 0.0 0.0 0.00 0.00 0.00 39 1015.4
20260510000035 76 313 0.0 0.0 0.00 0.00 0.00 37 1015.6
20260509234540 76 214 0.0 1.0 0.00 0.00 0.00 40 1015.6
20260509233036 76 306 0.0 0.0 0.00 0.00 0.00 40 1015.8
20260509231538 75 320 0.0 1.0 0.00 0.00 0.00 41 1016.0
20260509230030 76 277 0.0 0.0 0.00 0.00 0.00 40 1016.2
20260509224528 75 1 0.0 0.0 0.00 0.00 0.00 43 1016.4
20260509223028 75 360 0.0 1.0 0.00 0.00 0.00 43 1016.7
20260509221522 74 1 0.0 1.0 0.00 0.00 0.00 40 1016.8
20260509220026 73 360 0.0 0.0 0.00 0.00 0.00 45 1017.1
20260509214516 73 348 0.0 0.0 0.00 0.00 0.00 46 1017.4
20260509213013 72 256 0.0 0.0 0.00 0.00 0.00 50 1017.6